Location: Santiago
(33.4378°S, 70.6505°W)
Time: 07:05:38
(UTC+00:00)

ISS - Pass Details

Date: 20 June 2024
Orbit: 410 x 424 km, 51.6° (Epoch: 13 July)

Event Time Altitude Azimuth Distance (km) Brightness Sun altitude
Rises 21:52:09 0° 275° (W) 2,389 1.6 -2.6°
Maximum altitude 21:57:04 16° 211° (SSW) 1,214 -1.3 -3.6°
Drops below altitude 10° 21:59:16 10° 171° (S) 1,527 -1.2 -4.0°
Enters shadow 22:01:41 - 150° (SSE) 2,282 -0.5 -4.4°
